TimeMDT,TemperatureF,Dew PointF,Humidity,Sea Level PressureIn,VisibilityMPH,Wind Direction,Wind SpeedMPH,Gust SpeedMPH,PrecipitationIn,Events,Conditions,WindDirDegrees,DateUTC
12:53 AM,52.0,28.9,41,29.86,10.0,SE,6.9,-,N/A,,Clear,130,2012-10-11 06:53:00
1:53 AM,50.0,28.0,43,29.86,10.0,SE,4.6,-,N/A,,Clear,140,2012-10-11 07:53:00
2:53 AM,51.1,28.0,41,29.86,10.0,ESE,8.1,-,N/A,,Clear,120,2012-10-11 08:53:00
3:53 AM,50.0,27.0,41,29.87,10.0,ESE,5.8,-,N/A,,Clear,120,2012-10-11 09:53:00
4:53 AM,48.9,27.0,43,29.88,10.0,South,4.6,-,N/A,,Clear,180,2012-10-11 10:53:00
5:53 AM,48.0,27.0,44,29.90,10.0,SE,4.6,-,N/A,,Clear,140,2012-10-11 11:53:00
6:53 AM,46.0,27.0,47,29.90,10.0,SE,4.6,-,N/A,,Clear,130,2012-10-11 12:53:00
7:53 AM,45.0,27.0,49,29.92,10.0,SE,4.6,-,N/A,,Clear,130,2012-10-11 13:53:00
8:53 AM,48.0,27.0,44,29.95,10.0,SE,5.8,-,N/A,,Clear,130,2012-10-11 14:53:00
9:53 AM,57.0,28.0,33,29.95,10.0,Calm,Calm,-,N/A,,Clear,0,2012-10-11 15:53:00
10:53 AM,62.1,28.0,28,29.95,10.0,SE,8.1,-,N/A,,Clear,130,2012-10-11 16:53:00
11:53 AM,66.0,27.0,23,29.93,10.0,Variable,3.5,-,N/A,,Clear,0,2012-10-11 17:53:00
12:53 PM,69.1,28.0,22,29.91,7.0,Calm,Calm,-,N/A,,Clear,0,2012-10-11 18:53:00
1:53 PM,71.1,28.9,21,29.89,10.0,NW,5.8,-,N/A,,Clear,320,2012-10-11 19:53:00
2:53 PM,73.9,28.9,19,29.86,7.0,North,6.9,-,N/A,,Clear,10,2012-10-11 20:53:00
3:53 PM,73.4,28.4,19,29.89,6.0,Calm,Calm,-,N/A,,Haze,0,2012-10-11 21:53:00
4:53 PM,75.2,28.4,18,29.87,7.0,NNW,3.5,-,N/A,,Clear,340,2012-10-11 22:53:00
5:53 PM,73.9,30.0,20,29.81,5.0,NNW,6.9,-,N/A,,Haze,330,2012-10-11 23:53:00
6:53 PM,69.8,33.8,27,29.84,10.0,WNW,3.5,-,N/A,,Clear,300,2012-10-12 00:53:00
7:53 PM,64.9,35.1,33,29.81,10.0,NNW,3.5,-,N/A,,Clear,340,2012-10-12 01:53:00
8:53 PM,59.0,34.0,39,29.83,10.0,Calm,Calm,-,N/A,,Clear,0,2012-10-12 02:53:00
9:53 PM,55.4,33.8,44,29.85,10.0,SE,4.6,-,N/A,,Clear,130,2012-10-12 03:53:00
10:53 PM,55.9,32.0,40,29.82,10.0,Calm,Calm,-,N/A,,Clear,0,2012-10-12 04:53:00
11:53 PM,53.1,28.9,40,29.81,10.0,SE,6.9,-,N/A,,Clear,140,2012-10-12 05:53:00